sat.trackr.live / text

‹ back to catalog

STARLINK-3854

NORAD 52648 · 2022-052BC

PAYLOAD ACTIVE UNKNOWN

§ Identity

Operator
Country
US
Launch date
2022-05-14
Launch site
AFETR
Launch vehicle
Mass (kg)
RCS (m²)

Purposes: comms

External: N2YO · Heavens-Above · Gunter

§ Orbital elements

Epoch: 2026-05-25T02:16:48.451008Z

Period
95.44 min
Inclination
53.2132°
Eccentricity
0.0001243
Mean motion
15.08838912 rev/d
Perigee alt
538.9 km
Apogee alt
540.6 km
Semi-major
6,917.9 km
B*
1.9091e-5
RAAN
276.1226°
Arg perigee
87.6025°
Mean anomaly
272.5109°
Rev number
22,266

§ Raw data

STARLINK-38541 52648U 22052BC  26145.09500522  .00000016  00000+0  19091-4 0  99972 52648  53.2132 276.1226 0001243  87.6025 272.5109 15.08838912222666

JSON: /api/v1/satellites/52648 · /tle

For live sub-satellite position, see the globe view (requires WebGL).

§ Visibility from observer

Set your observer location to see the next 7 days of passes ≥ 10°. The values pass through the URL so the page stays shareable.

No JS? Fill the form by hand. The geolocation button needs JavaScript.